Saint Cloud, MN

2:00 PM CST on February 25, 2017 (GMT -0600)
Saint Cloud Regional

Weather History for KSTC - April, 2014

Change the Weather History Date:

Tuesday, April 15, 2014

  Actual Average Record
Temperature  
Mean Temperature 26 °F 44 °F  
Max Temperature 36 °F 56 °F 84 °F (2002)
Min Temperature 16 °F 33 °F 16 °F (2014)
Degree Days  
Heating Degree Days 39 21  
Month to date heating degree days 389 364  
Since 1 July heating degree days 8905 7914  
Cooling Degree Days 0 0  
Month to date cooling degree days 0 0  
Year to date cooling degree days 0 0  
Moisture  
Dew Point 5 °F    
Average Humidity 45    
Maximum Humidity 67    
Minimum Humidity 23    
Precipitation  
Precipitation 0.00 in 0.08 in 1.51 in (2012)
Month to date precipitation 0.57 1.14  
Year to date precipitation 4.28 3.93  
Snow  
Snow 0.00 in 0.10 in 3.30 in (1991)
Month to date snowfall 3.5 2.0  
Since 1 July snowfall 67.0 44.7  
Snow Depth 0.00 in    
Sea Level Pressure  
Sea Level Pressure 30.17 in    
Wind  
Wind Speed 6 mph (NW)    
Max Wind Speed 13 mph    
Max Gust Speed 16 mph    
Visibility 10 miles    
Events      
T = Trace of Precipitation, MM = Missing Value Source: NWS Daily Summary

Daily Weather History Graph

Daily Weather History Graph

Search for Another Location

Airport or City:

Trip Planner

Search our weather history database for the weather conditions in past years. The results will help you decide how hot, cold, wet, or windy it might be!

Date:

Astronomy

Apr. 15, 2014 Rise Set
Actual Time 6:30 AM CDT 8:02 PM CDT
Civil Twilight 5:59 AM CDT 8:33 PM CDT
Nautical Twilight 5:22 AM CDT 9:11 PM CDT
Astronomical Twilight 4:41 AM CDT 9:52 PM CDT
Moon 8:46 PM CDT (4/15) 6:38 AM CDT (4/15)
Length of Visible Light 14h 34m
Length of Day
13h 31m
Full, 100% of the Moon is Illuminated
Apr 15
Full
Apr 22
Last Quarter
Apr 29
New
May 6
First Quarter
May 14
Full

Hourly Weather History & Observations

Time (CDT) Temp. Windchill Dew Point Humidity Pressure Visibility Wind Dir Wind Speed Gust Speed Precip Events Conditions
12:53 AM 21.9 °F 9.8 °F 7.0 °F 53% 30.20 in 10.0 mi NNW 12.7 mph - N/A   Clear
1:53 AM 21.0 °F 10.6 °F 7.0 °F 55% 30.21 in 10.0 mi NNW 9.2 mph - N/A   Clear
2:53 AM 19.9 °F 9.3 °F 8.1 °F 60% 30.21 in 10.0 mi NNW 9.2 mph - N/A   Clear
3:53 AM 19.0 °F 9.0 °F 8.1 °F 62% 30.21 in 10.0 mi NNW 8.1 mph - N/A   Clear
4:53 AM 18.0 °F 9.8 °F 8.1 °F 65% 30.21 in 10.0 mi NW 5.8 mph - N/A   Clear
5:53 AM 17.1 °F 8.7 °F 7.0 °F 65% 30.21 in 10.0 mi NW 5.8 mph - N/A   Clear
6:53 AM 16.0 °F 7.4 °F 7.0 °F 68% 30.22 in 10.0 mi NNW 5.8 mph - N/A   Clear
7:53 AM 18.0 °F 6.9 °F 6.1 °F 60% 30.22 in 10.0 mi NNW 9.2 mph - N/A   Clear
8:53 AM 19.9 °F 12.1 °F 6.1 °F 55% 30.23 in 10.0 mi NW 5.8 mph - N/A   Clear
9:53 AM 23.0 °F 14.7 °F 3.9 °F 44% 30.24 in 10.0 mi NW 6.9 mph - N/A   Clear
10:53 AM 25.0 °F 19.3 °F 3.9 °F 41% 30.23 in 10.0 mi WSW 4.6 mph - N/A   Clear
11:53 AM 27.0 °F 19.5 °F 3.0 °F 36% 30.21 in 10.0 mi NNW 6.9 mph - N/A   Clear
12:53 PM 30.0 °F 26.5 °F 3.9 °F 33% 30.17 in 10.0 mi North 3.5 mph - N/A   Clear
1:53 PM 30.0 °F - 1.9 °F 30% 30.16 in 10.0 mi Calm Calm - N/A   Clear
2:53 PM 33.1 °F 30.0 °F -0.0 °F 24% 30.13 in 10.0 mi Variable 3.5 mph - N/A   Clear
3:53 PM 35.1 °F 27.9 °F 3.0 °F 26% 30.11 in 10.0 mi SSW 9.2 mph - N/A   Clear
4:53 PM 35.1 °F 29.3 °F 1.9 °F 25% 30.10 in 10.0 mi West 6.9 mph - N/A   Clear
5:53 PM 36.0 °F 32.1 °F 1.9 °F 24% 30.09 in 10.0 mi SW 4.6 mph - N/A   Partly Cloudy
6:53 PM 35.1 °F 28.6 °F 3.0 °F 26% 30.09 in 10.0 mi SSE 8.1 mph - N/A   Overcast
7:53 PM 34.0 °F 31.0 °F 6.1 °F 31% 30.10 in 10.0 mi SSE 3.5 mph - N/A   Overcast
8:53 PM 34.0 °F 28.8 °F 7.0 °F 32% 30.12 in 10.0 mi South 5.8 mph - N/A   Overcast
9:53 PM 33.1 °F 30.0 °F 7.0 °F 34% 30.12 in 10.0 mi ESE 3.5 mph - N/A   Overcast
10:53 PM 33.1 °F 27.7 °F 7.0 °F 34% 30.11 in 10.0 mi East 5.8 mph - N/A   Overcast
11:53 PM 33.1 °F 26.9 °F 6.1 °F 32% 30.09 in 10.0 mi East 6.9 mph - N/A   Overcast